G8LNQ Weather Reports


time (UTC)temp
C
wind
direction
speed
KPH
gust
KPH
rain 1hr
cm
rain 24hr
cm
rain mn
cm
humidity
%
barometer
mb
20260506073040 6 38 4.8 11.3 0.00 0.00 0.00 71 1016.0
20260506072520 6 98 3.2 11.3 0.00 0.00 0.00 72 1016.0
20260506072057 6 16 3.2 11.3 0.00 0.00 0.00 73 1016.0
20260506071540 6 5 3.2 9.7 0.00 0.00 0.00 74 1015.9
20260506071023 6 342 3.2 11.3 0.00 0.00 0.00 74 1015.9
20260506070559 6 86 4.8 12.9 0.00 0.00 0.00 75 1015.9
20260506070501 6 86 4.8 12.9 0.00 0.00 0.00 75 1015.9
20260506062507 4 328 1.6 6.4 0.00 0.00 0.00 80 1015.7
20260506062041 3 329 0.0 3.2 0.00 0.00 0.00 80 1015.7
20260506061531 3 329 0.0 3.2 0.00 0.00 0.00 81 1015.7
20260506061044 3 329 0.0 3.2 0.00 0.00 0.00 81 1015.7
20260506060514 3 329 0.0 3.2 0.00 0.00 0.00 81 1015.6
20260506051048 1 329 0.0 0.0 0.00 0.00 0.00 84 1015.6
20260506050531 1 329 0.0 0.0 0.00 0.00 0.00 84 1015.6
20260506045014 1 331 0.0 0.0 0.00 0.00 0.00 84 1015.6
20260506044540 1 330 0.0 0.0 0.00 0.00 0.00 84 1015.6
20260506044058 1 330 0.0 0.0 0.00 0.00 0.00 84 1015.7
20260506044002 1 330 0.0 0.0 0.00 0.00 0.00 84 1015.7
20260506043545 1 329 0.0 0.0 0.00 0.00 0.00 84 1015.7
20260506043013 1 330 0.0 3.2 0.00 0.00 0.00 84 1015.7
20260506042533 1 330 0.0 3.2 0.00 0.00 0.00 84 1015.6
20260506042012 1 330 0.0 3.2 0.00 0.00 0.00 84 1015.7
20260506041538 1 330 0.0 0.0 0.00 0.00 0.00 84 1015.6
20260506041013 1 329 0.0 1.6 0.00 0.00 0.00 84 1015.7
20260506040534 1 330 0.0 1.6 0.00 0.00 0.00 84 1015.7
20260506040101 1 330 0.0 0.0 0.00 0.00 0.00 84 1015.7
20260506040002 1 330 0.0 0.0 0.00 0.00 0.00 84 1015.7
20260506035544 1 330 0.0 0.0 0.00 0.00 0.00 84 1015.7
20260506035059 1 330 0.0 0.0 0.00 0.00 0.00 84 1015.7
20260506035000 1 330 0.0 0.0 0.00 0.00 0.00 84 1015.7
20260506034523 1 330 0.0 0.0 0.00 0.00 0.00 84 1015.7
20260506034059 1 330 0.0 0.0 0.00 0.00 0.00 84 1015.7
20260506034001 1 330 0.0 0.0 0.00 0.00 0.00 84 1015.7
20260506033524 1 330 0.0 0.0 0.00 0.00 0.00 85 1015.7
20260506033042 1 330 0.0 1.6 0.00 0.00 0.00 85 1015.7
20260506032523 1 330 0.0 3.2 0.00 0.00 0.00 85 1015.7
20260506032102 1 330 0.0 3.2 0.00 0.00 0.00 85 1015.7
20260506031526 1 330 0.0 0.0 0.00 0.00 0.00 85 1015.7
20260506031055 1 330 0.0 3.2 0.00 0.00 0.00 85 1015.7
20260506030539 1 330 0.0 3.2 0.00 0.00 0.00 85 1015.7
20260506030016 1 330 0.0 3.2 0.00 0.00 0.00 85 1015.8
20260506025538 1 330 0.0 3.2 0.00 0.00 0.00 85 1015.7
20260506025057 1 330 0.0 3.2 0.00 0.00 0.00 85 1015.7
20260506024547 1 331 0.0 3.2 0.00 0.00 0.00 85 1015.7
20260506024057 1 331 0.0 1.6 0.00 0.00 0.00 85 1015.7
20260506023538 1 330 0.0 3.2 0.00 0.00 0.00 85 1015.8
20260506023057 1 330 0.0 3.2 0.00 0.00 0.00 85 1015.7
20260506022536 2 331 0.0 3.2 0.00 0.00 0.00 85 1015.7
20260506022054 2 331 0.0 1.6 0.00 0.00 0.00 85 1015.7
20260506021537 2 331 0.0 3.2 0.00 0.00 0.00 86 1015.7
20260506021015 2 331 0.0 3.2 0.00 0.00 0.00 86 1015.8
20260506020530 2 331 0.0 1.6 0.00 0.00 0.00 86 1015.7
20260506020007 2 331 0.0 1.6 0.00 0.00 0.00 86 1015.8
20260506015529 2 331 0.0 1.6 0.00 0.00 0.00 86 1015.8
20260506015008 2 331 0.0 1.6 0.00 0.00 0.00 86 1015.8
20260506014533 2 331 0.0 1.6 0.00 0.00 0.00 86 1015.8
20260506014052 2 331 0.0 1.6 0.00 0.00 0.00 86 1015.8
20260506013536 2 331 0.0 1.6 0.00 0.00 0.00 86 1015.7
20260506013055 2 331 0.0 1.6 0.00 0.00 0.00 86 1015.7
20260506012532 2 331 0.0 1.6 0.00 0.00 0.00 86 1015.8
20260506012101 2 331 0.0 1.6 0.00 0.00 0.00 86 1015.8
20260506012002 2 331 0.0 1.6 0.00 0.00 0.00 86 1015.8
20260506011601 2 331 0.0 3.2 0.00 0.00 0.00 86 1015.8
20260506011022 2 331 0.0 3.2 0.00 0.00 0.00 86 1015.8
20260506010601 2 331 0.0 1.6 0.00 0.00 0.00 87 1015.8
20260506010019 2 331 0.0 1.6 0.00 0.00 0.00 87 1016.0
20260506005540 2 331 0.0 3.2 0.00 0.00 0.00 87 1016.0
20260506005018 2 331 0.0 3.2 0.00 0.00 0.00 87 1016.1
20260506004604 2 331 0.0 3.2 0.00 0.00 0.00 87 1016.1
20260506004036 2 331 0.0 3.2 0.00 0.00 0.00 87 1016.1
20260506003554 2 331 0.0 3.2 0.00 0.00 0.00 87 1016.1
20260506003036 2 331 0.0 3.2 0.00 0.00 0.00 87 1016.1
20260506002553 2 331 0.0 3.2 0.00 0.00 0.00 87 1016.1
20260506002018 2 331 0.0 3.2 0.00 0.00 0.00 87 1016.2
20260506001602 2 331 0.0 3.2 0.00 0.00 0.00 87 1016.2
20260506001022 3 331 0.0 3.2 0.00 0.00 0.00 87 1016.1
20260506000602 3 331 0.0 3.2 0.00 0.00 0.00 87 1016.2
20260506000504 3 332 0.0 3.2 0.00 0.00 0.00 87 1016.1
20260506000042 3 331 0.0 3.2 0.00 0.00 0.00 87 1016.2
20260505235602 3 331 0.0 3.2 0.00 0.00 0.00 87 1016.1
20260505235041 3 331 0.0 3.2 0.00 0.00 0.00 87 1016.0
20260505234552 3 331 0.0 3.2 0.00 0.00 0.00 87 1016.1
20260505234027 3 331 0.0 3.2 0.00 0.00 0.00 87 1016.2
20260505233548 3 331 0.0 3.2 0.00 0.00 0.00 87 1016.2
20260505233027 3 331 0.0 3.2 0.00 0.00 0.00 87 1016.2
20260505232548 3 331 0.0 1.6 0.00 0.00 0.00 87 1016.2
20260505232030 3 331 0.0 1.6 0.00 0.00 0.00 86 1016.2
20260505231508 3 331 0.0 4.8 0.00 0.00 0.00 86 1016.3
20260505231027 3 332 0.0 4.8 0.00 0.00 0.00 86 1016.3
20260505230507 3 331 0.0 4.8 0.00 0.00 0.00 86 1016.3
20260505230046 3 336 1.6 4.8 0.00 0.00 0.00 86 1016.3
20260505225559 3 336 0.0 4.8 0.00 0.00 0.00 86 1016.4
20260505225042 3 336 0.0 4.8 0.00 0.00 0.00 86 1016.5
20260505224532 4 331 0.0 6.4 0.00 0.00 0.00 86 1016.5